| time (UTC) | temp F | wind direction | speed MPH | gust MPH | rain 1hr in | rain 24hr in | rain mn in | humidity % | barometer mb |
| 20260510123111 | 0 | 0.0 | 0.0 | 0.00 | 0.00 | 0.00 | 1016.2 | ||
| 20260510121556 | 0 | 0.0 | 0.0 | 0.00 | 0.00 | 0.00 | 1016.4 | ||
| 20260510120051 | 32 | 44 | 0.0 | 1.0 | 0.00 | 0.00 | 0.00 | 51 | 1016.7 |
| 20260510114549 | 33 | 43 | 0.0 | 2.0 | 0.00 | 0.00 | 0.00 | 51 | 1016.6 |
| 20260510113056 | 34 | 23 | 0.0 | 0.0 | 0.00 | 0.00 | 0.00 | 49 | 1016.5 |
| 20260510111602 | 33 | 21 | 0.0 | 1.0 | 0.00 | 0.00 | 0.00 | 51 | 1016.3 |
| 20260510110037 | 35 | 52 | 0.0 | 1.0 | 0.00 | 0.00 | 0.00 | 47 | 1016.0 |
| 20260510104542 | 37 | 52 | 0.0 | 2.0 | 0.00 | 0.00 | 0.00 | 43 | 1015.7 |
| 20260510103037 | 36 | 54 | 1.0 | 1.0 | 0.00 | 0.00 | 0.00 | 45 | 1015.8 |
| 20260510101532 | 38 | 55 | 0.0 | 1.0 | 0.00 | 0.00 | 0.00 | 43 | 1015.5 |
| 20260510100027 | 38 | 55 | 0.0 | 1.0 | 0.00 | 0.00 | 0.00 | 44 | 1015.4 |
| 20260510094527 | 39 | 55 | 0.0 | 2.0 | 0.00 | 0.00 | 0.00 | 41 | 1015.3 |
| 20260510093024 | 40 | 67 | 0.0 | 1.0 | 0.00 | 0.00 | 0.00 | 39 | 1015.2 |
| 20260510091541 | 40 | 65 | 0.0 | 1.0 | 0.00 | 0.00 | 0.00 | 40 | 1015.1 |
| 20260510084556 | 41 | 132 | 0.0 | 1.0 | 0.00 | 0.00 | 0.00 | 38 | 1014.9 |
| 20260510083044 | 43 | 139 | 0.0 | 1.0 | 0.00 | 0.00 | 0.00 | 35 | 1014.9 |
| 20260510081547 | 43 | 201 | 0.0 | 0.0 | 0.00 | 0.00 | 0.00 | 36 | 1014.9 |
| 20260510080043 | 42 | 201 | 0.0 | 0.0 | 0.00 | 0.00 | 0.00 | 36 | 1014.9 |
| 20260510074541 | 42 | 264 | 0.0 | 3.0 | 0.00 | 0.00 | 0.00 | 35 | 1014.9 |
| 20260510073040 | 50 | 303 | 0.0 | 1.0 | 0.00 | 0.00 | 0.00 | 27 | 1014.6 |
| 20260510071540 | 56 | 81 | 0.0 | 3.0 | 0.00 | 0.00 | 0.00 | 22 | 1014.6 |
| 20260510070043 | 56 | 83 | 0.0 | 3.0 | 0.00 | 0.00 | 0.00 | 22 | 1014.6 |
| 20260510064554 | 56 | 87 | 0.0 | 1.0 | 0.00 | 0.00 | 0.00 | 23 | 1014.5 |
| 20260510063039 | 55 | 88 | 0.0 | 5.0 | 0.00 | 0.00 | 0.00 | 23 | 1014.4 |
| 20260510061542 | 55 | 79 | 0.0 | 3.0 | 0.00 | 0.00 | 0.00 | 22 | 1014.4 |
| 20260510060036 | 55 | 77 | 0.0 | 2.0 | 0.00 | 0.00 | 0.00 | 22 | 1014.4 |
| 20260510054529 | 56 | 77 | 1.0 | 3.0 | 0.00 | 0.00 | 0.00 | 21 | 1014.5 |
| 20260510053025 | 56 | 82 | 1.0 | 3.0 | 0.00 | 0.00 | 0.00 | 21 | 1014.5 |
| 20260510051525 | 54 | 75 | 0.0 | 3.0 | 0.00 | 0.00 | 0.00 | 23 | 1014.4 |
| 20260510050022 | 54 | 55 | 0.0 | 3.0 | 0.00 | 0.00 | 0.00 | 23 | 1014.3 |
| 20260510044523 | 54 | 74 | 0.0 | 2.0 | 0.00 | 0.00 | 0.00 | 22 | 1014.1 |
| 20260510043020 | 53 | 68 | 0.0 | 3.0 | 0.00 | 0.00 | 0.00 | 23 | 1014.0 |
| 20260510041515 | 54 | 73 | 0.0 | 2.0 | 0.00 | 0.00 | 0.00 | 22 | 1013.7 |
| 20260510040015 | 52 | 63 | 1.0 | 4.0 | 0.00 | 0.00 | 0.00 | 26 | 1013.5 |
| 20260510034509 | 55 | 66 | 0.0 | 2.0 | 0.00 | 0.00 | 0.00 | 21 | 1013.1 |
| 20260510033005 | 58 | 7 | 0.0 | 0.0 | 0.00 | 0.00 | 0.00 | 18 | 1012.8 |
| 20260510031536 | 59 | 7 | 0.0 | 0.0 | 0.00 | 0.00 | 0.00 | 16 | 1012.5 |
| 20260510030029 | 62 | 7 | 0.0 | 1.0 | 0.00 | 0.00 | 0.00 | 15 | 1012.2 |
| 20260510024525 | 64 | 335 | 0.0 | 2.0 | 0.00 | 0.00 | 0.00 | 14 | 1012.1 |
| 20260510023018 | 67 | 2 | 1.0 | 5.0 | 0.00 | 0.00 | 0.00 | 13 | 1011.8 |
| 20260510021514 | 69 | 25 | 3.0 | 9.0 | 0.00 | 0.00 | 0.00 | 13 | 1011.7 |
| 20260510020013 | 70 | 343 | 2.0 | 9.0 | 0.00 | 0.00 | 0.00 | 13 | 1011.6 |
| 20260510014515 | 71 | 334 | 6.0 | 10.0 | 0.00 | 0.00 | 0.00 | 13 | 1011.5 |
| 20260510013012 | 72 | 331 | 7.0 | 13.0 | 0.00 | 0.00 | 0.00 | 13 | 1011.3 |
| 20260510011507 | 73 | 349 | 4.0 | 12.0 | 0.00 | 0.00 | 0.00 | 12 | 1011.3 |
| 20260510010006 | 74 | 331 | 6.0 | 10.0 | 0.00 | 0.00 | 0.00 | 13 | 1011.2 |
| 20260510004535 | 74 | 300 | 5.0 | 9.0 | 0.00 | 0.00 | 0.00 | 13 | 1011.1 |
| 20260510003045 | 74 | 308 | 0.0 | 6.0 | 0.00 | 0.00 | 0.00 | 14 | 1011.1 |
| 20260510001531 | 75 | 75 | 0.0 | 7.0 | 0.00 | 0.00 | 0.00 | 15 | 1011.2 |
| 20260510000031 | 75 | 274 | 2.0 | 7.0 | 0.00 | 0.00 | 0.00 | 15 | 1011.3 |
| 20260509234539 | 75 | 343 | 2.0 | 9.0 | 0.00 | 0.00 | 0.00 | 15 | 1011.4 |
| 20260509233039 | 74 | 305 | 6.0 | 13.0 | 0.00 | 0.00 | 0.00 | 14 | 1011.5 |
| 20260509231528 | 75 | 57 | 6.0 | 11.0 | 0.00 | 0.00 | 0.00 | 14 | 1011.5 |
| 20260509230022 | 74 | 290 | 5.0 | 11.0 | 0.00 | 0.00 | 0.00 | 14 | 1011.6 |
| 20260509224519 | 74 | 53 | 3.0 | 8.0 | 0.00 | 0.00 | 0.00 | 14 | 1011.8 |
| 20260509223018 | 74 | 277 | 6.0 | 12.0 | 0.00 | 0.00 | 0.00 | 13 | 1011.9 |
| 20260509221546 | 74 | 324 | 4.0 | 11.0 | 0.00 | 0.00 | 0.00 | 12 | 1012.1 |
| 20260509220143 | 73 | 315 | 2.0 | 8.0 | 0.00 | 0.00 | 0.00 | 13 | 1012.4 |
| 20260509214538 | 74 | 6 | 3.0 | 12.0 | 0.00 | 0.00 | 0.00 | 14 | 1012.6 |
| 20260509213035 | 73 | 333 | 3.0 | 11.0 | 0.00 | 0.00 | 0.00 | 13 | 1012.7 |
| 20260509211533 | 73 | 58 | 0.0 | 8.0 | 0.00 | 0.00 | 0.00 | 14 | 1012.8 |
| 20260509210030 | 73 | 190 | 2.0 | 10.0 | 0.00 | 0.00 | 0.00 | 15 | 1012.9 |
| 20260509204529 | 71 | 148 | 4.0 | 9.0 | 0.00 | 0.00 | 0.00 | 16 | 1013.2 |
| 20260509203033 | 71 | 347 | 3.0 | 9.0 | 0.00 | 0.00 | 0.00 | 18 | 1013.2 |
| 20260509201521 | 70 | 84 | 3.0 | 9.0 | 0.00 | 0.00 | 0.00 | 19 | 1013.4 |
| 20260509200017 | 70 | 314 | 2.0 | 7.0 | 0.00 | 0.00 | 0.00 | 16 | 1013.6 |
| 20260509194510 | 68 | 96 | 0.0 | 9.0 | 0.00 | 0.00 | 0.00 | 18 | 1013.7 |
| 20260509193006 | 68 | 322 | 0.0 | 10.0 | 0.00 | 0.00 | 0.00 | 18 | 1013.9 |
| 20260509191501 | 68 | 351 | 4.0 | 9.0 | 0.00 | 0.00 | 0.00 | 19 | 1014.0 |
| 20260509190109 | 69 | 221 | 4.0 | 7.0 | 0.00 | 0.00 | 0.00 | 16 | 1014.1 |
| 20260509184556 | 67 | 329 | 3.0 | 10.0 | 0.00 | 0.00 | 0.00 | 19 | 1014.4 |
| 20260509183045 | 66 | 16 | 3.0 | 8.0 | 0.00 | 0.00 | 0.00 | 19 | 1014.3 |
| 20260509181541 | 66 | 65 | 5.0 | 11.0 | 0.00 | 0.00 | 0.00 | 20 | 1014.3 |
| 20260509180036 | 65 | 346 | 4.0 | 9.0 | 0.00 | 0.00 | 0.00 | 21 | 1014.3 |
| 20260509174530 | 64 | 52 | 1.0 | 10.0 | 0.00 | 0.00 | 0.00 | 22 | 1014.2 |
| 20260509173029 | 64 | 53 | 2.0 | 10.0 | 0.00 | 0.00 | 0.00 | 20 | 1014.4 |
| 20260509171529 | 63 | 79 | 3.0 | 13.0 | 0.00 | 0.00 | 0.00 | 24 | 1014.3 |
| 20260509170017 | 64 | 58 | 6.0 | 9.0 | 0.00 | 0.00 | 0.00 | 22 | 1014.2 |
| 20260509164615 | 63 | 46 | 5.0 | 8.0 | 0.00 | 0.00 | 0.00 | 22 | 1014.2 |
| 20260509163054 | 61 | 318 | 0.0 | 5.0 | 0.00 | 0.00 | 0.00 | 29 | 1014.1 |
| 20260509161544 | 60 | 52 | 1.0 | 7.0 | 0.00 | 0.00 | 0.00 | 32 | 1014.0 |
| 20260509160025 | 58 | 354 | 2.0 | 7.0 | 0.00 | 0.00 | 0.00 | 34 | 1014.0 |
| 20260509154531 | 57 | 76 | 1.0 | 6.0 | 0.00 | 0.00 | 0.00 | 35 | 1013.7 |
| 20260509153024 | 56 | 56 | 2.0 | 5.0 | 0.00 | 0.00 | 0.00 | 34 | 1013.7 |
| 20260509151512 | 56 | 72 | 3.0 | 0.0 | 0.00 | 0.00 | 0.00 | 1013.4 | |
| 20260509150035 | 55 | 56 | 4.0 | 9.0 | 0.00 | 0.00 | 0.00 | 36 | 1014.4 |
| 20260509144532 | 54 | 60 | 5.0 | 10.0 | 0.00 | 0.00 | 0.00 | 37 | 1014.2 |
| 20260509143033 | 52 | 46 | 1.0 | 5.0 | 0.00 | 0.00 | 0.00 | 40 | 1014.0 |
| 20260509141526 | 51 | 55 | 3.0 | 8.0 | 0.00 | 0.00 | 0.00 | 39 | 1013.7 |
| 20260509140016 | 51 | 56 | 3.0 | 7.0 | 0.00 | 0.00 | 0.00 | 39 | 1013.5 |
| 20260509134512 | 52 | 53 | 3.0 | 7.0 | 0.00 | 0.00 | 0.00 | 38 | 1013.3 |
| 20260509133007 | 51 | 60 | 3.0 | 5.0 | 0.00 | 0.00 | 0.00 | 38 | 1013.1 |
| 20260509131508 | 0 | 0.0 | 0.0 | 0.00 | 0.00 | 0.00 | 1013.0 | ||
| 20260509130004 | 0 | 0.0 | 0.0 | 0.00 | 0.00 | 0.00 | 1013.0 | ||
| 20260509124602 | 0 | 0.0 | 0.0 | 0.00 | 0.00 | 0.00 | 1013.0 |